Location: Chena
(64.8152°N, 147.9227°W)
Time: 10:06:30
(UTC+00:00)

Transit 2A - Visible Passes

Search period start: 01 March 2021 00:00
Search period end: 11 March 2021 00:00
Orbit: 601 x 958 km, 66.7° (Epoch: 28 February)

Date Brightness Start Highest point End Pass type
(mag) Time Alt. Az. Time Alt. Az. Time Alt. Az.
01 Mar 7.6 04:10:34 10° SE 04:12:05 11° ESE 04:13:34 10° E visible
01 Mar 6.3 05:49:32 10° SSW 05:54:07 35° SE 05:54:12 35° SE visible
01 Mar 7.0 07:31:59 10° WSW 07:34:45 33° WSW 07:34:45 33° WSW visible
02 Mar 6.6 05:15:46 10° S 05:20:05 29° SE 05:21:43 23° E visible
02 Mar 5.7 06:57:49 10° SW 07:02:14 65° SSW 07:02:14 65° SSW visible
02 Mar 7.8 08:41:14 10° W 08:42:47 20° W 08:42:47 20° W visible
03 Mar 6.9 04:42:06 10° S 04:46:04 24° ESE 04:49:03 13° ENE visible
03 Mar 5.7 06:23:43 10° SW 06:28:38 62° SE 06:29:34 50° E visible
03 Mar 6.8 08:06:58 10° W 08:10:05 39° W 08:10:05 39° W visible
03 Mar 8.4 09:50:33 10° WNW 09:50:37 10° WNW 09:50:37 10° WNW visible
04 Mar 7.2 04:08:38 10° SSE 04:12:07 19° ESE 04:15:24 10° ENE visible
04 Mar 5.8 05:49:39 10° SW 05:54:31 53° SE 05:56:45 27° ENE visible
04 Mar 5.8 07:32:43 10° WSW 07:37:16 74° WNW 07:37:16 74° WNW visible
04 Mar 7.8 09:16:18 10° WNW 09:17:46 20° WNW 09:17:46 20° WNW visible
05 Mar 6.1 05:15:41 10° SSW 05:20:25 44° SE 05:23:49 16° ENE visible
05 Mar 5.6 06:58:29 10° WSW 07:03:23 87° NNW 07:04:19 57° ENE visible
05 Mar 7.0 08:42:03 10° W 08:44:49 34° WNW 08:44:49 34° WNW visible
06 Mar 6.4 04:41:47 10° SSW 04:46:20 36° SE 04:50:34 10° ENE visible
06 Mar 5.6 06:24:17 10° WSW 06:29:12 85° SSE 06:31:18 32° ENE visible
06 Mar 6.1 08:07:48 10° W 08:11:47 57° NW 08:11:47 57° NW visible
06 Mar 8.0 09:51:17 10° WNW 09:52:17 16° WNW 09:52:17 16° WNW visible
07 Mar 6.7 04:07:59 10° S 04:12:18 30° SE 04:16:19 10° ENE visible
07 Mar 5.6 05:50:07 10° SW 05:55:01 75° SSE 05:58:11 20° ENE visible
07 Mar 5.8 07:33:32 10° W 07:38:18 70° N 07:38:41 66° NNE visible
07 Mar 7.4 09:17:04 10° WNW 09:19:10 26° WNW 09:19:10 26° WNW visible
08 Mar 5.7 05:15:59 10° SW 05:20:52 64° SE 05:25:02 12° ENE visible
08 Mar 5.7 06:59:17 10° W 07:04:04 74° N 07:05:32 42° ENE visible
08 Mar 6.6 08:42:50 10° WNW 08:46:00 42° WNW 08:46:00 42° WNW visible
08 Mar 8.2 10:26:09 10° WNW 10:26:30 12° WNW 10:26:30 12° WNW visible
09 Mar 5.9 04:41:56 10° SW 04:46:45 54° SE 04:51:10 10° ENE visible
09 Mar 5.7 06:25:02 10° WSW 06:29:50 78° NNW 06:32:20 26° ENE visible
09 Mar 5.9 08:08:36 10° WNW 08:12:49 66° NW 08:12:49 66° NW visible
09 Mar 7.7 09:51:57 10° WNW 09:53:18 19° WNW 09:53:18 19° WNW visible
10 Mar 5.7 05:50:47 10° WSW 05:55:37 85° NNW 05:59:06 17° ENE visible
10 Mar 5.7 07:34:21 10° W 07:39:01 70° N 07:39:34 61° NE visible
10 Mar 7.1 09:17:45 10° WNW 09:20:04 29° WNW 09:20:04 29° WNW visible
